Regional Weather Roundup
Issued by NWS Northern Indiana

Home | Current Version | Previous Version | Text Only | Print | Product List | Glossary Off
Versions: 1 2 3 4 5 6 7 8 9 10 11 12 13 14 15 16 17 18 19 20 21 22 23 24 25 26 27 28 29 30 31 32 33 34 35 36 37 38 39 40 41 42 43 44 45 46 47 48 49 50

000
ASUS43 KIWX 031700
RWRIWX

KIWX WEATHER ROUNDUP
NATIONAL WEATHER SERVICE NORTHERN INDIANA
100 PM EDT THU SEP 03 2015

NOTE: "FAIR" INDICATES FEW OR NO CLOUDS BELOW 12,000 FEET WITH NO
SIGNIFICANT WEATHER AND/OR OBSTRUCTIONS TO VISIBILITY.

* THESE STATIONS ARE NOT UNDER NWS QUALITY CONTROL. THEY ALSO MAY NOT
  REPORT WEATHER SUCH AS PRECIPITATION OR FOG.

INZ001>027-031800-
NORTHERN INDIANA

CITY           SKY/WX    TMP DP  RH WIND       PRES   REMARKS
GARY*          MOSUNNY   88  64  45 SW10      29.95F
KNOX*          SUNNY     86  66  51 SW8       29.97S
SOUTH BEND     SUNNY     86  68  54 SW10      29.97F
ELKHART*       SUNNY     86  68  54 N9        29.97F
GOSHEN         SUNNY     86  67  52 SW12      29.97F
MONTICELLO*    SUNNY     87  69  56 SW13      29.98F
ANGOLA*        SUNNY     88  72  58 SW10      29.98F
FORT WAYNE     MOSUNNY   86  69  56 W12       30.00F

$$
INZ028>050-031800-
CENTRAL INDIANA

CITY           SKY/WX    TMP DP  RH WIND       PRES   REMARKS
LAFAYETTE      MOSUNNY   87  66  49 W15G21    29.98F
KOKOMO*        MOSUNNY   88  70  55 W15       30.00F
MUNCIE*        MOSUNNY   84  69  60 W8        30.02F
INDIANAPOLIS   MOSUNNY   87  66  49 SW8       30.01F

$$
MIZ043>046-050>051-056>058-064>065-071>073-077>080-031800-
SOUTHWEST LOWER MICHIGAN

CITY           SKY/WX    TMP DP  RH WIND       PRES   REMARKS
BATTLE CREEK   PTSUNNY   85  70  60 W9        29.96F
BENTON HARBOR  PTSUNNY   83  69  62 SW13      29.95F
COLDWATER*     MOSUNNY   85  67  54 W9        29.97F
HILLSDALE*     MOSUNNY   87  70  57 W7        29.99F
HOLLAND        PTSUNNY   80  69  69 W10       29.94F
GRAND RAPIDS   CLOUDY    77  73  87 S7        29.94F
KALAMAZOO      PTSUNNY   84  68  58 SW12      29.95F
STURGIS*       MOSUNNY   84  72  65 W8        29.96F
THREE RIVERS*  FAIR      86  69  56 W8        29.96F

$$
OHZ001>008-015>018-024>025-031800-
NORTHWEST OHIO

CITY           SKY/WX    TMP DP  RH WIND       PRES   REMARKS
DEFIANCE       SUNNY     88  68  51 VRB6      29.98F
FINDLAY        SUNNY     87  70  56 W9        29.98F
TOLEDO EXPRESS SUNNY     86  69  56 W10       29.97F
TOLEDO METCALF SUNNY     87  68  52 W9        29.97F
LIMA           SUNNY     86  69  56 W10       30.00F

$$
AND FOR LAKE MICHIGAN COASTAL AND OPEN LAKE BUOY OBSERVATIONS

STATION/POSITION TEMP    WIND        PRES    VSBY  WAVE
                 AIR SEA DIR/SP/G                  HT/PER
                 (F)     (DEG/KT/KT) (MB)    (MI)  (FT/S)
CALUMET HARBOR    84     200/  6/ 11   N/A
MICHIGAN CITY     81     220/  6/  7   N/A
BURNS HARBOR      82     250/  7/  9 1014.9S
SAINT JOSEPH      78     180/ 10/ 14 1014.9S
SOUTH LAKE BUOY   73 71  210/  6/  6 1013.0F         1/ 3
4 MI NW BRIDGMAN  75 72  260/  8/  8   N/A           1/ 3
MICHIGAN CITY     78 73  250/  4/  6   N/A           1

$$
&&


USA.gov is the U.S. government's official web portal to all federal, state and local government web resources and services.